When you browse on this site, cookies collect data to enhance your experience and personalize the content and advertising you see.
Visit our Privacy Policy to learn more. By continuing to use the site, you agree to this use of cookies and data.
  • In Hungary
  • List of Countries
  • For 7 days
  • Water Temperature
  • Satellite Maps
  • Weather Map
  • News
  • Weather Widgets
  • user-avatar
    Login

    Hourly Weather Morton Grove

    Today, 21 July, Sunday

    Time Temperature Precipitation Wind Pressure Humidity
    00:00 +29°C° 0.8 mm 3 mps 742 mmHg 76%
    01:00 +28°C° 0.2 mm 3 mps 741 mmHg 77%
    02:00 +27°C° 0.2 mm 3 mps 741 mmHg 78%
    03:00 +25°C° 0.2 mm 4 mps 741 mmHg 79%
    04:00 +25°C° 1.1 mm 3 mps 742 mmHg 79%
    05:00 +25°C° 1.1 mm 3 mps 742 mmHg 79%
    06:00 +25°C° 1.1 mm 2 mps 742 mmHg 80%
    07:00 +26°C° 0 mm 3 mps 742 mmHg 77%
    08:00 +26°C° 0 mm 3 mps 742 mmHg 75%
    09:00 +27°C° 0 mm 3 mps 742 mmHg 72%
    10:00 +28°C° 0.1 mm 4 mps 743 mmHg 66%
    11:00 +28°C° 0.1 mm 4 mps 743 mmHg 61%
    12:00 +29°C° 0.1 mm 4 mps 743 mmHg 55%
    13:00 +28°C° 0.1 mm 4 mps 743 mmHg 54%
    14:00 +27°C° 0.1 mm 5 mps 742 mmHg 54%
    15:00 +26°C° 0.1 mm 5 mps 742 mmHg 54%
    16:00 +26°C° 0.2 mm 5 mps 742 mmHg 57%
    17:00 +26°C° 0.2 mm 4 mps 742 mmHg 61%
    18:00 +25°C° 0.2 mm 3 mps 742 mmHg 65%
    19:00 +25°C° 0 mm 4 mps 743 mmHg 65%
    20:00 +25°C° 0 mm 4 mps 743 mmHg 65%
    21:00 +23°C° 0 mm 4 mps 743 mmHg 65%
    22:00 +23°C° 0 mm 4 mps 743 mmHg 65%
    23:00 +23°C° 0 mm 4 mps 743 mmHg 64%

    Tomorrow, 22 July, Monday

    Time Temperature Precipitation Wind Pressure Humidity
    00:00 +24°C° 0 mm 3 mps 743 mmHg 64%
    01:00 +23°C° 0 mm 4 mps 743 mmHg 66%
    02:00 +23°C° 0 mm 4 mps 743 mmHg 69%
    03:00 +23°C° 0 mm 4 mps 743 mmHg 71%
    04:00 +22°C° 0.1 mm 4 mps 744 mmHg 69%
    05:00 +22°C° 0.1 mm 4 mps 744 mmHg 68%
    06:00 +21°C° 0.1 mm 4 mps 745 mmHg 66%
    07:00 +22°C° 0 mm 5 mps 745 mmHg 64%
    08:00 +22°C° 0 mm 6 mps 745 mmHg 61%
    09:00 +22°C° 0 mm 6 mps 745 mmHg 59%
    10:00 +23°C° 0 mm 6 mps 746 mmHg 53%
    11:00 +25°C° 0 mm 5 mps 746 mmHg 48%
    12:00 +25°C° 0 mm 5 mps 746 mmHg 42%
    13:00 +26°C° 0 mm 5 mps 746 mmHg 41%
    14:00 +26°C° 0 mm 6 mps 746 mmHg 40%
    15:00 +26°C° 0 mm 6 mps 745 mmHg 40%
    16:00 +24°C° 0 mm 6 mps 745 mmHg 42%
    17:00 +25°C° 0 mm 5 mps 746 mmHg 45%
    18:00 +25°C° 0 mm 5 mps 746 mmHg 47%
    19:00 +23°C° 0 mm 4 mps 746 mmHg 51%
    20:00 +24°C° 0 mm 3 mps 746 mmHg 54%
    21:00 +22°C° 0 mm 3 mps 746 mmHg 58%
    22:00 +22°C° 0 mm 3 mps 746 mmHg 60%
    23:00 +21°C° 0 mm 3 mps 746 mmHg 62%

    Day after tomorrow, 23 July, Tuesday

    Time Temperature Precipitation Wind Pressure Humidity
    00:00 +21°C° 0 mm 3 mps 746 mmHg 64%
    01:00 +20°C° 0 mm 3 mps 746 mmHg 66%
    02:00 +20°C° 0 mm 4 mps 746 mmHg 67%
    03:00 +20°C° 0 mm 4 mps 746 mmHg 68%
    04:00 +20°C° 0 mm 4 mps 747 mmHg 65%
    05:00 +20°C° 0 mm 4 mps 747 mmHg 61%
    06:00 +20°C° 0 mm 4 mps 747 mmHg 57%
    07:00 +22°C° 0 mm 4 mps 747 mmHg 53%
    08:00 +23°C° 0 mm 4 mps 747 mmHg 49%
    09:00 +26°C° 0 mm 4 mps 747 mmHg 44%
    10:00 +27°C° 0 mm 4 mps 747 mmHg 43%
    11:00 +27°C° 0 mm 4 mps 747 mmHg 42%
    12:00 +28°C° 0 mm 5 mps 747 mmHg 41%
    13:00 +28°C° 0 mm 5 mps 747 mmHg 43%
    14:00 +27°C° 0 mm 5 mps 747 mmHg 46%
    15:00 +27°C° 0 mm 5 mps 747 mmHg 48%
    16:00 +27°C° 0 mm 5 mps 747 mmHg 49%
    17:00 +26°C° 0 mm 4 mps 747 mmHg 51%
    18:00 +25°C° 0 mm 4 mps 747 mmHg 52%
    19:00 +25°C° 0 mm 3 mps 747 mmHg 55%
    20:00 +24°C° 0 mm 3 mps 747 mmHg 58%
    21:00 +24°C° 0 mm 2 mps 747 mmHg 61%
    22:00 +23°C° 0 mm 2 mps 747 mmHg 63%
    23:00 +22°C° 0 mm 3 mps 747 mmHg 66%

    24 July, Wednesday

    Time Temperature Precipitation Wind Pressure Humidity
    00:00 +22°C° 0 mm 3 mps 747 mmHg 68%
    01:00 +21°C° 0 mm 3 mps 747 mmHg 70%
    02:00 +21°C° 0 mm 3 mps 747 mmHg 72%
    03:00 +20°C° 0 mm 3 mps 747 mmHg 74%
    04:00 +20°C° 0 mm 3 mps 747 mmHg 73%
    05:00 +20°C° 0 mm 3 mps 748 mmHg 71%
    06:00 +20°C° 0 mm 3 mps 748 mmHg 70%
    07:00 +23°C° 0 mm 2 mps 748 mmHg 62%
    08:00 +25°C° 0 mm 2 mps 748 mmHg 54%
    09:00 +27°C° 0 mm 2 mps 749 mmHg 46%
    10:00 +28°C° 0 mm 2 mps 748 mmHg 43%
    11:00 +29°C° 0 mm 2 mps 748 mmHg 41%
    12:00 +30°C° 0 mm 2 mps 748 mmHg 38%
    13:00 +30°C° 0.1 mm 3 mps 748 mmHg 39%
    14:00 +30°C° 0.1 mm 3 mps 747 mmHg 40%
    15:00 +30°C° 0.1 mm 3 mps 747 mmHg 40%
    16:00 +29°C° 0.1 mm 3 mps 747 mmHg 43%
    17:00 +29°C° 0.1 mm 2 mps 747 mmHg 46%
    18:00 +28°C° 0.1 mm 2 mps 747 mmHg 49%
    19:00 +27°C° 0 mm 2 mps 747 mmHg 53%
    20:00 +27°C° 0 mm 1 mps 748 mmHg 56%
    21:00 +26°C° 0 mm 1 mps 748 mmHg 60%
    22:00 +25°C° 0 mm 1 mps 748 mmHg 62%
    23:00 +25°C° 0 mm 1 mps 748 mmHg 64%

    25 July, Thursday

    Time Temperature Precipitation Wind Pressure Humidity
    00:00 +24°C° 0 mm 1 mps 748 mmHg 66%
    01:00 +24°C° 0 mm 1 mps 748 mmHg 67%
    02:00 +24°C° 0 mm 1 mps 748 mmHg 69%
    03:00 +23°C° 0 mm 2 mps 748 mmHg 71%
    04:00 +23°C° 0 mm 1 mps 748 mmHg 71%
    05:00 +23°C° 0 mm 1 mps 748 mmHg 70%
    06:00 +23°C° 0 mm 1 mps 748 mmHg 70%
    07:00 +25°C° 0 mm 1 mps 748 mmHg 63%
    08:00 +27°C° 0 mm 1 mps 749 mmHg 57%
    09:00 +28°C° 0 mm 1 mps 749 mmHg 50%
    10:00 +29°C° 0 mm 2 mps 749 mmHg 48%
    11:00 +30°C° 0 mm 2 mps 749 mmHg 46%
    12:00 +31°C° 0 mm 3 mps 749 mmHg 44%
    13:00 +30°C° 0.2 mm 3 mps 748 mmHg 47%
    14:00 +29°C° 0.2 mm 2 mps 748 mmHg 50%
    15:00 +29°C° 0.2 mm 2 mps 748 mmHg 52%
    16:00 +29°C° 0.1 mm 2 mps 748 mmHg 54%
    17:00 +28°C° 0.1 mm 2 mps 748 mmHg 55%
    18:00 +28°C° 0.1 mm 2 mps 747 mmHg 57%
    19:00 +27°C° 0 mm 2 mps 748 mmHg 60%
    20:00 +27°C° 0 mm 2 mps 748 mmHg 63%
    21:00 +26°C° 0 mm 2 mps 748 mmHg 66%
    22:00 +26°C° 0 mm 2 mps 748 mmHg 67%
    23:00 +25°C° 0 mm 3 mps 748 mmHg 69%

    26 July, Friday

    Time Temperature Precipitation Wind Pressure Humidity
    00:00 +25°C° 0 mm 3 mps 748 mmHg 71%
    01:00 +24°C° 0 mm 3 mps 748 mmHg 71%
    02:00 +24°C° 0 mm 3 mps 748 mmHg 71%
    03:00 +24°C° 0 mm 3 mps 748 mmHg 71%
    04:00 +22°C° 0 mm 3 mps 748 mmHg 72%
    05:00 +22°C° 0 mm 3 mps 748 mmHg 72%
    06:00 +22°C° 0 mm 3 mps 748 mmHg 73%
    07:00 +24°C° 0 mm 3 mps 749 mmHg 68%
    08:00 +26°C° 0 mm 4 mps 749 mmHg 63%
    09:00 +27°C° 0 mm 4 mps 749 mmHg 59%
    10:00 +28°C° 0 mm 4 mps 749 mmHg 55%
    11:00 +29°C° 0 mm 4 mps 749 mmHg 52%
    12:00 +30°C° 0 mm 5 mps 749 mmHg 48%
    13:00 +30°C° 0 mm 5 mps 748 mmHg 48%
    14:00 +30°C° 0 mm 5 mps 748 mmHg 48%
    15:00 +32°C° 0 mm 5 mps 747 mmHg 48%
    16:00 +30°C° 0 mm 5 mps 747 mmHg 51%
    17:00 +29°C° 0 mm 5 mps 747 mmHg 54%
    18:00 +29°C° 0 mm 5 mps 746 mmHg 57%
    19:00 +28°C° 0 mm 5 mps 747 mmHg 61%
    20:00 +27°C° 0 mm 5 mps 747 mmHg 65%
    21:00 +26°C° 0 mm 5 mps 747 mmHg 69%
    22:00 +26°C° 0 mm 5 mps 747 mmHg 70%
    23:00 +25°C° 0 mm 5 mps 747 mmHg 71%
    Show more